Location: Tamke-Allan Observatory
(35.8325°N, 84.6178°W)
Time: 02:34:19
(UTC-05:00)

Tiangong 1 - Visible Passes

Search period start: 21 February 2018 00:00
Search period end: 03 March 2018 00:00
Orbit: 247 x 269 km, 42.8° (Epoch: 21 February)

Date Brightness Start Highest point End Pass type
(mag) Time Alt. Az. Time Alt. Az. Time Alt. Az.
28 Feb 2.4 19:03:13 10° S 19:04:35 14° SE 19:05:57 10° ESE visible
01 Mar 1.7 18:54:21 10° SSW 18:56:16 24° SSE 18:58:11 10° E visible
01 Mar 4.2 20:27:57 10° W 20:28:03 11° W 20:28:03 11° W visible
02 Mar 3.7 20:19:40 10° WNW 20:20:14 14° WNW 20:20:14 14° WNW visible
